Weather History for Washington, MO

Change the Weather History Date:

Tuesday, July 23, 2013

  Actual Average (KSTL) Record (KSTL)
Temperature  
Mean Temperature 80 °F 80 °F  
Max Temperature 89 °F 89 °F 108 °F (1934)
Min Temperature 71 °F 71 °F 52 °F (1947)
Degree Days  
Heating Degree Days 0 0  
Month to date heating degree days 0  
Since 1 June heating degree days 5  
Since 1 July heating degree days 0  
Cooling Degree Days 15 15  
Month to date cooling degree days 345  
Year to date cooling degree days 853  
Since 1 June cooling degree days 679  
Growing Degree Days 30 (Base 50)    
Moisture  
Dew Point 71 °F    
Average Humidity 74    
Maximum Humidity 100    
Minimum Humidity 52    
Precipitation  
Precipitation 0.00 in 0.14 in 2.05 in (1973)
Month to date precipitation 3.09  
Year to date precipitation 23.74  
Snow  
Snow 0.00 in 0.00 in 0.00 in (2013)
Month to date snowfall 0.0  
Since 1 June snowfall 0.0  
Since 1 July snowfall 0.0  
Snow Depth -    
Sea Level Pressure  
Sea Level Pressure 29.84 in    
Wind  
Wind Speed 3 mph (NNW)    
Max Wind Speed 10 mph    
Max Gust Speed 18 mph    
Visibility 10 miles    
Events      
T = Trace of Precipitation, MM = Missing Value Source: NWS Daily Summary

Daily Weather History Graph

Daily Weather History Graph

Search for Another Location

Airport:

Trip Planner

Search our weather history database for the weather conditions in past years. The results will help you decide how hot, cold, wet, or windy it might be!

Date:

Astronomy

Jul. 23, 2013 Rise Set
Actual Time 5:58 AM CDT 8:22 PM CDT
Civil Twilight 5:27 AM CDT 8:52 PM CDT
Nautical Twilight 4:50 AM CDT 9:29 PM CDT
Astronomical Twilight 4:09 AM CDT 10:10 PM CDT
Moon 8:52 PM CDT (7/23) 7:05 AM CDT (7/23)
Length of Visible Light 15h 24m
Length of Day
14h 24m
Full, 99% of the Moon is Illuminated
Jul 23
Full
Jul 29
Last Quarter
Aug 6
New
Aug 14
First Quarter
Aug 20
Full

Hourly Weather History & Observations

Time (CDT) Temp. Heat Index Dew Point Humidity Pressure Visibility Wind Dir Wind Speed Gust Speed Precip Events Conditions
12:15 AM 78.8 °F - 75.2 °F 89% 29.83 in 10.0 mi Calm Calm - N/A   Clear
12:35 AM 78.8 °F - 73.4 °F 83% 29.83 in 10.0 mi Calm Calm - N/A   Mostly Cloudy
12:55 AM 78.8 °F - 75.2 °F 89% 29.84 in 10.0 mi Calm Calm - N/A   Overcast
1:15 AM 77.0 °F - 75.2 °F 94% 29.84 in 10.0 mi Calm Calm - N/A   Mostly Cloudy
1:35 AM 75.2 °F - 73.4 °F 94% 29.84 in 10.0 mi Calm Calm - N/A   Mostly Cloudy
1:55 AM 75.2 °F - 73.4 °F 94% 29.84 in 10.0 mi Calm Calm - N/A   Mostly Cloudy
2:15 AM 77.0 °F - 73.4 °F 89% 29.85 in 10.0 mi NNW 5.8 mph - N/A   Scattered Clouds
2:35 AM 77.0 °F - 73.4 °F 89% 29.85 in 10.0 mi North 4.6 mph - N/A   Mostly Cloudy
2:55 AM 77.0 °F - 73.4 °F 89% 29.85 in 10.0 mi Calm Calm - N/A   Overcast
3:15 AM 77.0 °F - 71.6 °F 83% 29.85 in 10.0 mi Calm Calm - N/A   Mostly Cloudy
3:35 AM 75.2 °F - 71.6 °F 89% 29.82 in 10.0 mi Calm Calm - N/A   Mostly Cloudy
3:55 AM 75.2 °F - 73.4 °F 94% 29.78 in 10.0 mi SSE 5.8 mph - N/A   Clear
4:15 AM 73.4 °F - 71.6 °F 94% 29.74 in 10.0 mi SE 9.2 mph - N/A   Clear
4:35 AM 75.2 °F - 69.8 °F 83% 29.75 in 10.0 mi South 4.6 mph - N/A   Clear
4:55 AM 73.4 °F - 69.8 °F 88% 29.76 in 10.0 mi Calm Calm - N/A   Clear
5:15 AM 71.6 °F - 69.8 °F 94% 29.79 in 10.0 mi Calm Calm - N/A   Clear
5:35 AM 73.4 °F - 68.0 °F 83% 29.80 in 10.0 mi Calm Calm - N/A   Clear
5:55 AM 73.4 °F - 68.0 °F 83% 29.80 in 10.0 mi Calm Calm - N/A   Clear
6:15 AM 71.6 °F - 68.0 °F 88% 29.80 in 10.0 mi Calm Calm - N/A   Clear
6:35 AM 71.6 °F - 69.8 °F 94% 29.81 in 10.0 mi Calm Calm - N/A   Clear
6:55 AM 71.6 °F - 69.8 °F 94% 29.82 in 10.0 mi Calm Calm - N/A   Clear
7:15 AM 71.6 °F - 71.6 °F 100% 29.83 in 10.0 mi Calm Calm - N/A   Clear
7:35 AM 71.6 °F - 71.6 °F 100% 29.83 in 10.0 mi Calm Calm - N/A   Clear
7:55 AM 73.4 °F - 71.6 °F 94% 29.84 in 10.0 mi Calm Calm - N/A   Clear
8:15 AM 75.2 °F - 71.6 °F 89% 29.84 in 10.0 mi Calm Calm - N/A   Clear
8:35 AM 77.0 °F - 71.6 °F 83% 29.84 in 10.0 mi Calm Calm - N/A   Clear
8:55 AM 77.0 °F - 69.8 °F 78% 29.84 in 10.0 mi Calm Calm - N/A   Clear
9:15 AM 78.8 °F - 69.8 °F 74% 29.84 in 10.0 mi WNW 3.5 mph - N/A   Clear
9:35 AM 80.6 °F 84.6 °F 71.6 °F 74% 29.85 in 10.0 mi WNW 4.6 mph - N/A   Clear
9:55 AM 80.6 °F 84.6 °F 71.6 °F 74% 29.85 in 10.0 mi West 4.6 mph - N/A   Clear
10:15 AM 82.4 °F 87.2 °F 71.6 °F 70% 29.85 in 10.0 mi Calm Calm - N/A   Clear
10:35 AM 82.4 °F 88.2 °F 73.4 °F 74% 29.86 in 10.0 mi NW 5.8 mph - N/A   Clear
10:55 AM 82.4 °F 88.2 °F 73.4 °F 74% 29.86 in 10.0 mi WNW 5.8 mph - N/A   Clear
11:15 AM 84.2 °F 90.9 °F 73.4 °F 70% 29.86 in 10.0 mi West 6.9 mph - N/A   Partly Cloudy
11:35 AM 84.2 °F 90.9 °F 73.4 °F 70% 29.86 in 10.0 mi NW 6.9 mph - N/A   Partly Cloudy
11:55 AM 86.0 °F 93.4 °F 73.4 °F 66% 29.85 in 10.0 mi NW 8.1 mph 18.4 mph N/A   Partly Cloudy
12:15 PM 86.0 °F 93.4 °F 73.4 °F 66% 29.86 in 10.0 mi NNW 6.9 mph - N/A   Partly Cloudy
12:35 PM 86.0 °F 93.4 °F 73.4 °F 66% 29.86 in 10.0 mi NW 6.9 mph - N/A   Scattered Clouds
12:55 PM 86.0 °F 93.4 °F 73.4 °F 66% 29.86 in 10.0 mi NW 9.2 mph - N/A   Partly Cloudy
1:15 PM 86.0 °F 93.4 °F 73.4 °F 66% 29.85 in 10.0 mi WNW 6.9 mph - N/A   Scattered Clouds
1:35 PM 86.0 °F 93.4 °F 73.4 °F 66% 29.84 in 10.0 mi North 6.9 mph - N/A   Mostly Cloudy
1:55 PM 87.8 °F 95.6 °F 73.4 °F 62% 29.83 in 10.0 mi North 4.6 mph - N/A   Partly Cloudy
2:15 PM 87.8 °F 95.6 °F 73.4 °F 62% 29.83 in 10.0 mi North 6.9 mph - N/A   Clear
2:35 PM 89.6 °F 98.2 °F 73.4 °F 59% 29.83 in 10.0 mi NNW 6.9 mph - N/A   Partly Cloudy
3:15 PM 89.6 °F 98.2 °F 73.4 °F 59% 29.82 in 10.0 mi NNW 6.9 mph - N/A   Partly Cloudy
3:35 PM 89.6 °F 98.2 °F 73.4 °F 59% 29.82 in 10.0 mi NNW 8.1 mph - N/A   Mostly Cloudy
3:55 PM 87.8 °F 93.8 °F 71.6 °F 58% 29.82 in 10.0 mi North 6.9 mph - N/A   Mostly Cloudy
4:15 PM 89.6 °F 96.2 °F 71.6 °F 55% 29.81 in 10.0 mi North 3.5 mph - N/A   Mostly Cloudy
4:35 PM 89.6 °F 94.7 °F 69.8 °F 52% 29.81 in 10.0 mi NNE 6.9 mph - N/A   Partly Cloudy
4:55 PM 89.6 °F 94.7 °F 69.8 °F 52% 29.81 in 10.0 mi North 4.6 mph - N/A   Clear
5:15 PM 89.6 °F 94.7 °F 69.8 °F 52% 29.81 in 10.0 mi North 8.1 mph - N/A   Clear
5:35 PM 87.8 °F 92.6 °F 69.8 °F 55% 29.81 in 10.0 mi North 6.9 mph - N/A   Partly Cloudy
5:55 PM 87.8 °F 92.6 °F 69.8 °F 55% 29.80 in 10.0 mi North 10.4 mph - N/A   Mostly Cloudy
6:15 PM 86.0 °F 91.8 °F 71.6 °F 62% 29.80 in 10.0 mi North 4.6 mph - N/A   Scattered Clouds
6:35 PM 84.2 °F 88.4 °F 69.8 °F 62% 29.81 in 10.0 mi Calm Calm - N/A   Clear
6:55 PM 82.4 °F 87.2 °F 71.6 °F 70% 29.82 in 10.0 mi Calm Calm - N/A   Clear
7:15 PM 82.4 °F 87.2 °F 71.6 °F 70% 29.83 in 10.0 mi North 4.6 mph - N/A   Clear
7:35 PM 82.4 °F 87.2 °F 71.6 °F 70% 29.85 in 10.0 mi Calm Calm - N/A   Clear
7:55 PM 82.4 °F 85.4 °F 68.0 °F 62% 29.84 in 10.0 mi North 4.6 mph - N/A   Clear
8:15 PM 82.4 °F 84.6 °F 66.2 °F 58% 29.84 in 10.0 mi North 6.9 mph - N/A   Partly Cloudy
8:35 PM 80.6 °F 82.7 °F 66.2 °F 61% 29.85 in 10.0 mi North 10.4 mph - N/A   Partly Cloudy
8:55 PM 80.6 °F 82.7 °F 66.2 °F 61% 29.85 in 10.0 mi North 8.1 mph - N/A   Scattered Clouds
9:15 PM 80.6 °F 82.3 °F 64.4 °F 58% 29.86 in 10.0 mi NNW 4.6 mph - N/A   Mostly Cloudy
9:35 PM 78.8 °F - 64.4 °F 61% 29.88 in 10.0 mi NNW 5.8 mph - N/A   Overcast
9:55 PM 77.0 °F - 66.2 °F 69% 29.89 in 10.0 mi Calm Calm - N/A   Overcast
10:15 PM 77.0 °F - 66.2 °F 69% 29.90 in 10.0 mi North 3.5 mph - N/A   Mostly Cloudy
10:35 PM 75.2 °F - 66.2 °F 73% 29.89 in 10.0 mi Calm Calm - N/A   Mostly Cloudy
10:55 PM 75.2 °F - 64.4 °F 69% 29.88 in 10.0 mi NE 4.6 mph - N/A   Scattered Clouds
11:15 PM 75.2 °F - 66.2 °F 73% 29.88 in 10.0 mi ENE 3.5 mph - N/A   Scattered Clouds
11:35 PM 75.2 °F - 64.4 °F 69% 29.90 in 10.0 mi Calm Calm - N/A   Mostly Cloudy
11:55 PM 73.4 °F - 64.4 °F 73% 29.91 in 10.0 mi Calm Calm - N/A   Overcast